• In Hungary
  • List of Countries
  • For 7 days
  • Water Temperature
  • Satellite Maps
  • Weather Map
  • News
  • Weather Widgets
  • user-avatar
    Login

    Hourly Weather Bolshaya Sosnovka

    Today, 25 May, Friday

    Time Temperature Precipitation Wind Pressure Humidity
    00:00 +13°C° 0 mm 3 mps 753 mmHg 79%
    01:00 +12°C° 0 mm 3 mps 753 mmHg 75%
    02:00 +11°C° 0 mm 3 mps 753 mmHg 71%
    03:00 +11°C° 0 mm 4 mps 753 mmHg 66%
    04:00 +10°C° 0 mm 4 mps 754 mmHg 63%
    05:00 +9°C° 0 mm 5 mps 754 mmHg 61%
    06:00 +9°C° 0 mm 5 mps 754 mmHg 58%
    07:00 +10°C° 0 mm 6 mps 754 mmHg 53%
    08:00 +11°C° 0 mm 6 mps 754 mmHg 48%
    09:00 +12°C° 0 mm 7 mps 755 mmHg 43%
    10:00 +12°C° 0 mm 7 mps 755 mmHg 42%
    11:00 +14°C° 0 mm 7 mps 755 mmHg 41%
    12:00 +14°C° 0 mm 7 mps 755 mmHg 40%
    13:00 +14°C° 0 mm 7 mps 756 mmHg 40%
    14:00 +14°C° 0 mm 7 mps 756 mmHg 39%
    15:00 +14°C° 0 mm 7 mps 756 mmHg 39%
    16:00 +13°C° 0 mm 6 mps 756 mmHg 40%
    17:00 +11°C° 0 mm 6 mps 757 mmHg 42%
    18:00 +12°C° 0 mm 5 mps 757 mmHg 43%
    19:00 +9°C° 0 mm 5 mps 758 mmHg 46%
    20:00 +8°C° 0 mm 4 mps 758 mmHg 48%
    21:00 +7°C° 0 mm 3 mps 759 mmHg 51%
    22:00 +7°C° 0 mm 3 mps 759 mmHg 53%
    23:00 +5°C° 0 mm 3 mps 760 mmHg 56%

    Tomorrow, 26 May, Saturday

    Time Temperature Precipitation Wind Pressure Humidity
    00:00 +4°C° 0 mm 3 mps 760 mmHg 58%
    01:00 +4°C° 0 mm 3 mps 760 mmHg 59%
    02:00 +3°C° 0 mm 3 mps 761 mmHg 60%
    03:00 +2°C° 0 mm 3 mps 762 mmHg 60%
    04:00 +4°C° 0 mm 3 mps 762 mmHg 58%
    05:00 +5°C° 0 mm 4 mps 762 mmHg 55%
    06:00 +6°C° 0 mm 4 mps 763 mmHg 52%
    07:00 +7°C° 0 mm 4 mps 763 mmHg 48%
    08:00 +10°C° 0 mm 4 mps 763 mmHg 43%
    09:00 +10°C° 0 mm 5 mps 763 mmHg 39%
    10:00 +12°C° 0 mm 5 mps 763 mmHg 38%
    11:00 +13°C° 0 mm 4 mps 763 mmHg 37%
    12:00 +14°C° 0 mm 4 mps 763 mmHg 37%
    13:00 +15°C° 0 mm 4 mps 763 mmHg 37%
    14:00 +15°C° 0 mm 4 mps 763 mmHg 37%
    15:00 +17°C° 0 mm 4 mps 763 mmHg 37%
    16:00 +17°C° 0 mm 3 mps 762 mmHg 41%
    17:00 +17°C° 0 mm 2 mps 762 mmHg 44%
    18:00 +17°C° 0 mm 2 mps 762 mmHg 48%
    19:00 +15°C° 0 mm 2 mps 762 mmHg 52%
    20:00 +13°C° 0 mm 2 mps 762 mmHg 56%
    21:00 +10°C° 0 mm 3 mps 761 mmHg 60%
    22:00 +10°C° 0 mm 3 mps 761 mmHg 61%
    23:00 +10°C° 0 mm 3 mps 761 mmHg 62%

    Day after tomorrow, 27 May, Sunday

    Time Temperature Precipitation Wind Pressure Humidity
    00:00 +10°C° 0 mm 4 mps 761 mmHg 64%
    01:00 +10°C° 0 mm 4 mps 761 mmHg 65%
    02:00 +10°C° 0 mm 4 mps 761 mmHg 66%
    03:00 +9°C° 0 mm 5 mps 760 mmHg 67%
    04:00 +10°C° 0 mm 5 mps 760 mmHg 66%
    05:00 +10°C° 0 mm 5 mps 760 mmHg 66%
    06:00 +11°C° 0 mm 6 mps 759 mmHg 65%
    07:00 +14°C° 0 mm 6 mps 759 mmHg 62%
    08:00 +16°C° 0 mm 7 mps 758 mmHg 59%
    09:00 +18°C° 0 mm 7 mps 758 mmHg 56%
    10:00 +20°C° 0 mm 8 mps 757 mmHg 53%
    11:00 +21°C° 0 mm 8 mps 757 mmHg 50%
    12:00 +23°C° 0 mm 8 mps 756 mmHg 47%
    13:00 +22°C° 0.1 mm 8 mps 756 mmHg 50%
    14:00 +22°C° 0.1 mm 7 mps 755 mmHg 52%
    15:00 +22°C° 0.1 mm 6 mps 755 mmHg 54%
    16:00 +21°C° 0.3 mm 6 mps 754 mmHg 59%
    17:00 +20°C° 0.3 mm 6 mps 754 mmHg 64%
    18:00 +19°C° 0.3 mm 6 mps 753 mmHg 69%
    19:00 +16°C° 1.8 mm 5 mps 753 mmHg 76%
    20:00 +14°C° 1.8 mm 5 mps 753 mmHg 84%
    21:00 +13°C° 1.8 mm 4 mps 753 mmHg 91%
    22:00 +12°C° 0.9 mm 4 mps 753 mmHg 92%
    23:00 +12°C° 0.9 mm 3 mps 753 mmHg 92%

    28 May, Monday

    Time Temperature Precipitation Wind Pressure Humidity
    00:00 +11°C° 0.9 mm 3 mps 754 mmHg 93%
    01:00 +10°C° 0.2 mm 3 mps 754 mmHg 92%
    02:00 +9°C° 0.2 mm 3 mps 754 mmHg 92%
    03:00 +8°C° 0.2 mm 3 mps 754 mmHg 91%
    04:00 +8°C° 0 mm 4 mps 755 mmHg 86%
    05:00 +8°C° 0 mm 4 mps 755 mmHg 81%
    06:00 +8°C° 0 mm 4 mps 755 mmHg 76%
    07:00 +9°C° 0 mm 5 mps 755 mmHg 66%
    08:00 +10°C° 0 mm 6 mps 756 mmHg 57%
    09:00 +11°C° 0 mm 6 mps 756 mmHg 47%
    10:00 +11°C° 0 mm 6 mps 756 mmHg 47%
    11:00 +11°C° 0 mm 7 mps 756 mmHg 46%
    12:00 +11°C° 0 mm 7 mps 757 mmHg 46%
    13:00 +11°C° 0 mm 7 mps 757 mmHg 46%
    14:00 +11°C° 0 mm 7 mps 757 mmHg 46%
    15:00 +11°C° 0 mm 7 mps 757 mmHg 46%
    16:00 +10°C° 0 mm 6 mps 757 mmHg 48%
    17:00 +10°C° 0 mm 5 mps 758 mmHg 50%
    18:00 +11°C° 0 mm 4 mps 758 mmHg 52%
    19:00 +8°C° 0 mm 4 mps 758 mmHg 55%
    20:00 +8°C° 0 mm 3 mps 758 mmHg 58%
    21:00 +7°C° 0 mm 2 mps 758 mmHg 61%
    22:00 +6°C° 0 mm 2 mps 759 mmHg 64%
    23:00 +5°C° 0 mm 2 mps 759 mmHg 66%

    29 May, Tuesday

    Time Temperature Precipitation Wind Pressure Humidity
    00:00 +4°C° 0 mm 2 mps 759 mmHg 69%
    01:00 +4°C° 0 mm 2 mps 759 mmHg 69%
    02:00 +4°C° 0 mm 2 mps 759 mmHg 70%
    03:00 +3°C° 0 mm 3 mps 759 mmHg 71%
    04:00 +4°C° 0 mm 3 mps 758 mmHg 69%
    05:00 +7°C° 0 mm 3 mps 758 mmHg 67%
    06:00 +7°C° 0 mm 4 mps 758 mmHg 65%
    07:00 +10°C° 0 mm 4 mps 757 mmHg 63%
    08:00 +12°C° 0 mm 5 mps 757 mmHg 60%
    09:00 +13°C° 0 mm 5 mps 756 mmHg 58%
    10:00 +14°C° 0 mm 5 mps 755 mmHg 59%
    11:00 +15°C° 0 mm 5 mps 755 mmHg 60%
    12:00 +15°C° 0 mm 5 mps 754 mmHg 61%
    13:00 +16°C° 0.1 mm 6 mps 754 mmHg 59%
    14:00 +19°C° 0.1 mm 6 mps 753 mmHg 57%
    15:00 +20°C° 0.1 mm 6 mps 753 mmHg 55%
    16:00 +17°C° 0.3 mm 5 mps 752 mmHg 63%
    17:00 +16°C° 0.3 mm 5 mps 751 mmHg 72%
    18:00 +14°C° 0.3 mm 4 mps 751 mmHg 81%
    19:00 +14°C° 0 mm 4 mps 750 mmHg 79%
    20:00 +14°C° 0 mm 5 mps 749 mmHg 77%
    21:00 +14°C° 0 mm 5 mps 748 mmHg 74%
    22:00 +14°C° 0 mm 6 mps 747 mmHg 69%
    23:00 +15°C° 0 mm 6 mps 746 mmHg 64%

    30 May, Wednesday

    Time Temperature Precipitation Wind Pressure Humidity
    00:00 +15°C° 0 mm 7 mps 745 mmHg 59%
    01:00 +15°C° 0 mm 6 mps 745 mmHg 60%
    02:00 +15°C° 0 mm 6 mps 744 mmHg 61%
    03:00 +14°C° 0 mm 6 mps 744 mmHg 62%
    04:00 +15°C° 0 mm 6 mps 744 mmHg 63%
    05:00 +15°C° 0 mm 6 mps 743 mmHg 64%
    06:00 +15°C° 0 mm 6 mps 743 mmHg 64%
    07:00 +16°C° 0 mm 6 mps 743 mmHg 59%
    08:00 +18°C° 0 mm 7 mps 742 mmHg 53%
    09:00 +20°C° 0 mm 8 mps 742 mmHg 47%
    10:00 +18°C° 0.4 mm 8 mps 742 mmHg 51%
    11:00 +17°C° 0.4 mm 8 mps 741 mmHg 55%
    12:00 +17°C° 0.4 mm 8 mps 741 mmHg 59%
    13:00 +16°C° 0.3 mm 8 mps 741 mmHg 57%
    14:00 +15°C° 0.3 mm 8 mps 742 mmHg 56%
    15:00 +15°C° 0.3 mm 9 mps 742 mmHg 54%
    16:00 +12°C° 0 mm 8 mps 742 mmHg 58%
    17:00 +11°C° 0 mm 8 mps 743 mmHg 63%
    18:00 +10°C° 0 mm 7 mps 743 mmHg 67%
    19:00 +9°C° 0.1 mm 7 mps 743 mmHg 73%
    20:00 +9°C° 0.1 mm 7 mps 744 mmHg 78%
    21:00 +8°C° 0.1 mm 6 mps 744 mmHg 84%
    22:00 +8°C° 0.1 mm 6 mps 744 mmHg 84%
    23:00 +8°C° 0.1 mm 6 mps 744 mmHg 85%
    Show more